Location: Dortmund
(51.5019°N, 7.6520°E)
Time: 16:57:57
(UTC+01:00)

ISS - Pass Details

Date: 22 March 2017
Orbit: 399 x 409 km, 51.6° (Epoch: 25 March)

Event Time Altitude Azimuth Distance (km) Brightness Sun altitude
Exits shadow 03:47:02 11° 124° (SE) 1,402 -0.9 -24.2°
Drops below altitude 10° 03:47:13 10° 123° (ESE) 1,472 -0.8 -24.2°
Sets 03:49:19 0° 119° (ESE) 2,331 0.4 -23.9°
